Location: Jodlow
(50.1500°N, 16.7500°E)
Time: 12:25:04
(UTC+02:00)

O/OREOS (USA 219) - Pass Details

Date: 06 March 2024
Orbit: 621 x 646 km, 72.0° (Epoch: 22 May)

Event Time Altitude Azimuth Distance (km) Brightness Sun altitude
Exits shadow 02:40:20 11° 104° (ESE) 1,958 ? -34.7°
Maximum altitude 02:40:52 11° 97° (E) 1,946 ? -34.6°
Drops below altitude 10° 02:42:22 10° 77° (ENE) 2,048 ? -34.5°
Sets 02:46:12 0° 45° (NE) 2,967 ? -34.0°
